Location: Domont
(49.0278°N, 2.3264°E)
Time: 11:28:10
(UTC+00:00)

NOAA 18 - Pass Details

Date: 01 July 2022
Orbit: 839 x 860 km, 98.9° (Epoch: 10 August)

Event Time Altitude Azimuth Distance (km) Brightness Sun altitude
Exits shadow 22:38:40 - 215° (SW) 2,660 7.4 -15.9°
Reaches altitude 10° 22:39:16 10° 219° (SW) 2,479 7.3 -16.0°
Maximum altitude 22:43:29 22° 269° (W) 1,779 7.1 -16.2°
Drops below altitude 10° 22:47:45 10° 319° (NW) 2,502 8.7 -16.4°
Sets 22:50:42 0° 335° (NNW) 3,447 10.1 -16.5°
